Location: Recife
(8.0585°S, 34.8848°W)
Time: 09:52:33
(UTC-03:00)

Transit 2A Rocket - Pass Details

Date: 21 April 2026
Orbit: 587 x 895 km, 66.7° (Epoch: 14 May)

Event Time Altitude Azimuth Distance (km) Brightness Sun altitude
Rises 11:31:38 0° 312° (NW) 2,804 8.1 69.7°
Reaches altitude 10° 11:34:20 10° 294° (WNW) 1,904 7.4 69.5°
Maximum altitude 11:37:26 20° 247° (WSW) 1,397 6.6 69.4°
Drops below altitude 10° 11:40:35 10° 200° (SSW) 1,942 7.1 69.2°
Sets 11:43:24 0° 183° (S) 2,881 7.8 69.0°
